STARLINK-33583, 63503

Orbit data source: Space-Track

STARLINK-33583, 63503 is a payload satellite owned by SpaceX/Seattle (US) in LEO that was launched on Mon, 07 Apr 2025 UTC via an FALCON 9 launch vehicle from the Air Force Western Test Range (AFWTR). Payload-class satellites include a variety of spacecraft equipped with specific instruments for various scientific and technological missions. These include communications satellites like Starlink; space stations such as the ISS; scientific satellites like the Hubble; Earth observation satellites from companies like Planet Labs, Umbra, and HawkEye 360; GPS; miniature CubeSats for education and research; and military/defense satellites.

Loading next visibility...
Identifier
63503, 2025-071L
Orbit
LEO
Country
Flag of USUS
Related business
Manufacturer
SpaceX/Seattle
Mission
Operational Commercial Communications
Bus & Motor
STARLINK V2MO, Unknown motor
Mass
575 kg wet, ~530 kg dry
Launch date (UTC)
2025-04-07 (7 months ago)
Launch vehicle
FALCON 9
Launch site
Air Force Western Test Range (AFWTR)
Object type
Payload
Rocket body
Debris
Shape & HBR
Box + 2 Pan, 17.7 m
Radar Cross Section
36.964 m², Large (>1 m²)

Expand to show TLE details & history
Last TLE update: 22 hours ago

TLE from 22 hours ago
0 STARLINK-33583
1 63503U 25071L   25308.88288808  .00029766  00000-0  10133-2 0  9990
2 63503  53.1612   2.3172 0001361  93.2423 266.8733 15.30192360 33636
Epoch: 2025-11-04T21:11Z
TLE epoch observation values (Epoch: 2025-11-04T21:11:21.530Z)
Latitude
-0.00004°
Longitude
0.11393°
Altitude
476.189 km
Speed
7.629 km/s
True Right ascension
00h 09m 16s
True Declination
0° 00' 00"
Sunlit
Object was in full shadow at epoch
Visualization orbit readout
Latitude
Unknown
Longitude
Unknown
Altitude
Unknown
Speed
Unknown
Apparent Right ascension
Unknown
Apparent Declination
Unknown
Sunlit
N/A
Visualization observer readout
Local Sidereal Time
15:36:10
Azimuth
Unknown
Elevation
Unknown
Doppler factor
Unknown
Orbital elements
Apogee altitude
476.427 km
Perigee altitude
474.561 km
Semi-major axis
6,853.631 km
Eccentricity
0.00014
Inclination
53.1612°
RAAN
2.3172°
Arg. of periapsis
93.2423°
True anomaly
266.85773°
Mean anomaly
266.8733°
Eccentric anomaly
266.86551°
Mean motion
3.82527 °/min
Orbital period
94.11 mins
BSTAR
0.0010133
Loading maneuver chart data...
Computing Atmospheric mass density...
Loading historical data...
Loading historical data...
Loading historical data...
Loading historical data...
Loading historical data...
Loading historical data...
Loading historical data...

Documentation

Showing up to 5 results
|